,,,PA_Meas_PMT16A,,PR_Meas_QMR101_102,,RH_Meas_QMH101,,SR_Meas_QMS101,,TA_Meas_QMH101,,GenWind,,GenWind,
date,time,status,PA,status,PR,status,RH,status,SR,status,TA,status,DirAvg,status,SpdAvg,
2014-10-11, 00:00:04,VALID,1010.08,VALID,0,INVALID,115.675,VALID,0,VALID,22.8173,VALID,156,VALID,0.198437,
2014-10-11, 00:01:04,VALID,1010.07,VALID,0,INVALID,115.736,VALID,0,VALID,22.7978,VALID,156,VALID,0.292578,
2014-10-11, 00:02:04,VALID,1010.07,VALID,0,INVALID,115.797,VALID,0,VALID,22.7978,VALID,156,VALID,0.342578,
2014-10-11, 00:03:04,VALID,1010.05,VALID,0,INVALID,115.683,VALID,0,VALID,22.8368,VALID,156,VALID,0.24375,
2014-10-11, 00:04:04,VALID,1010.07,VALID,0,INVALID,115.667,VALID,0,VALID,22.8562,VALID,156,VALID,0.340234,
2014-10-11, 00:05:04,VALID,1010.05,VALID,0,INVALID,115.736,VALID,0,VALID,22.8368,VALID,156,VALID,0.391016,
2014-10-11, 00:06:04,VALID,1010.08,VALID,0,INVALID,115.759,VALID,0,VALID,22.8368,VALID,156,VALID,0.655859,
2014-10-11, 00:07:04,VALID,1010.07,VALID,0,INVALID,115.805,VALID,0,VALID,22.8173,VALID,156,VALID,0.681641,
2014-10-11, 00:08:04,VALID,1010.08,VALID,0,INVALID,115.805,VALID,0.112112,VALID,22.8155,VALID,156,VALID,0.864062,
2014-10-11, 00:09:04,VALID,1010.04,VALID,0,INVALID,115.805,VALID,0,VALID,22.8368,VALID,156,VALID,0.410156,
2014-10-11, 00:10:04,VALID,1010.05,VALID,0,INVALID,115.835,VALID,0,VALID,22.8368,VALID,156,VALID,0.285547,
2014-10-11, 00:11:04,VALID,1010.03,VALID,0,INVALID,115.873,VALID,0,VALID,22.8368,VALID,156,VALID,0,
2014-10-11, 00:12:04,VALID,1010.05,VALID,0,INVALID,115.904,VALID,0,VALID,22.8173,VALID,156,VALID,0,
2014-10-11, 00:13:04,VALID,1010.05,VALID,0,INVALID,115.965,VALID,0,VALID,22.8368,VALID,156,VALID,0,
2014-10-11, 00:14:04,VALID,1010.03,VALID,0,INVALID,115.98,VALID,0,VALID,22.8173,VALID,156,VALID,0,
2014-10-11, 00:15:04,VALID,1010.03,VALID,0,INVALID,115.995,VALID,0,VALID,22.7978,VALID,156,VALID,0,
2014-10-11, 00:16:04,VALID,1009.99,VALID,0,INVALID,115.95,VALID,0,VALID,22.8173,VALID,156,VALID,0,
2014-10-11, 00:17:04,VALID,1009.99,VALID,0,INVALID,115.957,VALID,0,VALID,22.7978,VALID,156,VALID,0,
2014-10-11, 00:18:04,VALID,1009.95,VALID,0,INVALID,115.927,VALID,0,VALID,22.8173,VALID,156,VALID,0,
2014-10-11, 00:19:04,VALID,1009.91,VALID,0,INVALID,115.934,VALID,0,VALID,22.8173,VALID,156,VALID,0,
2014-10-11, 00:20:04,VALID,1009.87,VALID,0,INVALID,115.972,VALID,0,VALID,22.8368,VALID,156,VALID,0,
2014-10-11, 00:21:04,VALID,1009.86,VALID,0,INVALID,115.972,VALID,0,VALID,22.8368,VALID,156,VALID,0,
2014-10-11, 00:22:04,VALID,1009.79,VALID,0,INVALID,115.95,VALID,0,VALID,22.8368,VALID,156,VALID,0,
2014-10-11, 00:23:04,VALID,1009.77,VALID,0,INVALID,115.995,VALID,0,VALID,22.8368,VALID,156,VALID,0,
2014-10-11, 00:24:04,VALID,1009.78,VALID,0,INVALID,116.056,VALID,0,VALID,22.8173,VALID,156,VALID,0,
2014-10-11, 00:25:04,VALID,1009.78,VALID,0,INVALID,116.11,VALID,0,VALID,22.8173,VALID,156,VALID,0,
2014-10-11, 00:26:04,VALID,1009.8,VALID,0,INVALID,116.094,VALID,0,VALID,22.7978,VALID,156,VALID,0,
2014-10-11, 00:27:04,VALID,1009.78,VALID,0,INVALID,115.95,VALID,0,VALID,22.8368,VALID,156,VALID,0,
2014-10-11, 00:28:04,VALID,1009.82,VALID,0,INVALID,115.797,VALID,0,VALID,22.8562,VALID,156,VALID,0,
2014-10-11, 00:29:04,VALID,1009.81,VALID,0,INVALID,115.751,VALID,0,VALID,22.8757,VALID,156,VALID,0,
2014-10-11, 00:30:04,VALID,1009.77,VALID,0,INVALID,115.797,VALID,0,VALID,22.8562,VALID,156,VALID,0,
2014-10-11, 00:31:04,VALID,1009.77,VALID,0,INVALID,115.843,VALID,0,VALID,22.8562,VALID,156,VALID,0,
2014-10-11, 00:32:04,VALID,1009.8,VALID,0,INVALID,115.919,VALID,0,VALID,22.8562,VALID,156,VALID,0,
2014-10-11, 00:33:04,VALID,1009.78,VALID,0,INVALID,115.873,VALID,0,VALID,22.8562,VALID,156,VALID,0,
2014-10-11, 00:34:04,VALID,1009.81,VALID,0,INVALID,115.866,VALID,0,VALID,22.8562,VALID,156,VALID,0,
2014-10-11, 00:35:04,VALID,1009.81,VALID,0,INVALID,115.889,VALID,0,VALID,22.8173,VALID,156,VALID,0,
2014-10-11, 00:36:04,VALID,1009.82,VALID,0,INVALID,115.904,VALID,0,VALID,22.8368,VALID,156,VALID,0,
2014-10-11, 00:37:04,VALID,1009.79,VALID,0,INVALID,115.911,VALID,0,VALID,22.858,VALID,156,VALID,0,
2014-10-11, 00:38:04,VALID,1009.78,VALID,0,INVALID,115.896,VALID,0,VALID,22.8562,VALID,156,VALID,0,
2014-10-11, 00:39:04,VALID,1009.77,VALID,0,INVALID,115.866,VALID,0,VALID,22.8545,VALID,156,VALID,0,
2014-10-11, 00:40:04,VALID,1009.75,VALID,0,INVALID,115.896,VALID,0,VALID,22.8562,VALID,156,VALID,0,
2014-10-11, 00:41:04,VALID,1009.75,VALID,0,INVALID,115.858,VALID,0,VALID,22.8368,VALID,156,VALID,0,
2014-10-11, 00:42:04,VALID,1009.76,VALID,0,INVALID,115.873,VALID,0,VALID,22.8368,VALID,156,VALID,0,
2014-10-11, 00:43:04,VALID,1009.74,VALID,0,INVALID,115.835,VALID,0,VALID,22.8368,VALID,156,VALID,0,
2014-10-11, 00:44:04,VALID,1009.76,VALID,0,INVALID,115.85,VALID,0,VALID,22.8562,VALID,156,VALID,0,
2014-10-11, 00:45:04,VALID,1009.73,VALID,0,INVALID,115.919,VALID,0,VALID,22.8368,VALID,156,VALID,0,
2014-10-11, 00:46:04,VALID,1009.73,VALID,0,INVALID,115.904,VALID,0,VALID,22.8562,VALID,156,VALID,0,
2014-10-11, 00:47:04,VALID,1009.71,VALID,0,INVALID,116.011,VALID,0,VALID,22.858,VALID,156,VALID,0,
2014-10-11, 00:48:04,VALID,1009.7,VALID,0,INVALID,116.186,VALID,0,VALID,22.7978,VALID,156,VALID,0,
2014-10-11, 00:49:04,VALID,1009.67,VALID,0,INVALID,116.148,VALID,0,VALID,22.7978,VALID,156,VALID,0,
2014-10-11, 00:50:04,VALID,1009.64,VALID,0,INVALID,116.148,VALID,0,VALID,22.7783,VALID,156,VALID,0,
2014-10-11, 00:51:04,VALID,1009.58,VALID,0,INVALID,116.171,VALID,0,VALID,22.7978,VALID,156,VALID,0,
2014-10-11, 00:52:04,VALID,1009.55,VALID,0,INVALID,116.117,VALID,0,VALID,22.7978,VALID,156,VALID,0,
2014-10-11, 00:53:04,VALID,1009.55,VALID,0,INVALID,116.102,VALID,0,VALID,22.7978,VALID,156,VALID,0,
2014-10-11, 00:54:04,VALID,1009.52,VALID,0,INVALID,116.14,VALID,0,VALID,22.7978,VALID,156,VALID,0,
2014-10-11, 00:55:04,VALID,1009.54,VALID,0,INVALID,116.102,VALID,0,VALID,22.7783,VALID,156,VALID,0,
2014-10-11, 00:56:04,VALID,1009.56,VALID,0,INVALID,116.186,VALID,0,VALID,22.7588,VALID,156,VALID,0,
2014-10-11, 00:57:04,VALID,1009.57,VALID,0,INVALID,116.155,VALID,0,VALID,22.7394,VALID,156,VALID,0,
2014-10-11, 00:58:04,VALID,1009.59,VALID,0,INVALID,116.125,VALID,0,VALID,22.7394,VALID,156,VALID,0,
2014-10-11, 00:59:04,VALID,1009.61,VALID,0,INVALID,116.11,VALID,0,VALID,22.7588,VALID,156,VALID,0,
2014-10-11, 01:00:04,VALID,1009.59,VALID,0,INVALID,116.041,VALID,0,VALID,22.7588,VALID,156,VALID,0,
2014-10-11, 01:01:04,VALID,1009.57,VALID,0,INVALID,116.125,VALID,0,VALID,22.7588,VALID,156,VALID,0,
2014-10-11, 01:02:04,VALID,1009.59,VALID,0,INVALID,116.186,VALID,0,VALID,22.7394,VALID,156,VALID,0,
2014-10-11, 01:03:04,VALID,1009.58,VALID,0,INVALID,116.224,VALID,0,VALID,22.7004,VALID,156,VALID,0,
2014-10-11, 01:04:04,VALID,1009.59,VALID,0,INVALID,116.224,VALID,0,VALID,22.7004,VALID,156,VALID,0,
2014-10-11, 01:05:04,VALID,1009.52,VALID,0,INVALID,116.216,VALID,0,VALID,22.6809,VALID,156,VALID,0,
2014-10-11, 01:06:04,VALID,1009.49,VALID,0,INVALID,116.125,VALID,0,VALID,22.6792,VALID,156,VALID,0,
2014-10-11, 01:07:04,VALID,1009.45,VALID,0,INVALID,116.041,VALID,0.112112,VALID,22.7199,VALID,156,VALID,0,
2014-10-11, 01:08:04,VALID,1009.43,VALID,0,INVALID,115.98,VALID,0,VALID,22.7394,VALID,156,VALID,0,
2014-10-11, 01:09:04,VALID,1009.38,VALID,0,INVALID,115.988,VALID,0,VALID,22.7588,VALID,156,VALID,0,
2014-10-11, 01:10:04,VALID,1009.39,VALID,0,INVALID,115.995,VALID,0,VALID,22.7588,VALID,156,VALID,0,
2014-10-11, 01:11:04,VALID,1009.4,VALID,0,INVALID,115.988,VALID,0,VALID,22.7588,VALID,156,VALID,0,
2014-10-11, 01:12:04,VALID,1009.38,VALID,0,INVALID,115.942,VALID,0,VALID,22.7588,VALID,156,VALID,0,
2014-10-11, 01:13:04,VALID,1009.38,VALID,0,INVALID,115.972,VALID,0,VALID,22.7588,VALID,156,VALID,0,
2014-10-11, 01:14:04,VALID,1009.38,VALID,0,INVALID,115.95,VALID,0,VALID,22.7783,VALID,156,VALID,0,
2014-10-11, 01:15:05,VALID,1009.37,VALID,0,INVALID,115.995,VALID,0,VALID,22.7588,VALID,156,VALID,0,
2014-10-11, 01:16:05,VALID,1009.36,VALID,0,INVALID,116.056,VALID,0,VALID,22.7995,VALID,156,VALID,0,
2014-10-11, 01:17:05,VALID,1009.34,VALID,0,INVALID,116.087,VALID,0,VALID,22.7588,VALID,156,VALID,0,
2014-10-11, 01:18:05,VALID,1009.34,VALID,0,INVALID,116.094,VALID,0,VALID,22.7394,VALID,156,VALID,0,
2014-10-11, 01:19:05,VALID,1009.36,VALID,0,INVALID,116.049,VALID,0,VALID,22.7588,VALID,156,VALID,0,
2014-10-11, 01:20:05,VALID,1009.33,VALID,0,INVALID,116.018,VALID,0,VALID,22.7394,VALID,156,VALID,0,
2014-10-11, 01:21:05,VALID,1009.32,VALID,0,INVALID,116.026,VALID,0,VALID,22.7394,VALID,156,VALID,0,
2014-10-11, 01:22:05,VALID,1009.29,VALID,0,INVALID,116.087,VALID,0,VALID,22.7394,VALID,156,VALID,0,
2014-10-11, 01:23:05,VALID,1009.26,VALID,0,INVALID,116.041,VALID,0,VALID,22.7394,VALID,156,VALID,0,
2014-10-11, 01:24:05,VALID,1009.25,VALID,0,INVALID,116.072,VALID,0,VALID,22.7588,VALID,156,VALID,0,
2014-10-11, 01:25:05,VALID,1009.23,VALID,0,INVALID,116.033,VALID,0,VALID,22.7588,VALID,156,VALID,0,
2014-10-11, 01:26:05,VALID,1009.19,VALID,0,INVALID,116.049,VALID,0.112112,VALID,22.7376,VALID,156,VALID,0,
2014-10-11, 01:27:05,VALID,1009.17,VALID,0,INVALID,116.064,VALID,0,VALID,22.7588,VALID,156,VALID,0,
2014-10-11, 01:28:05,VALID,1009.18,VALID,0,INVALID,116.133,VALID,0.112112,VALID,22.7394,VALID,156,VALID,0,
2014-10-11, 01:29:05,VALID,1009.16,VALID,0,INVALID,116.201,VALID,0,VALID,22.7199,VALID,156,VALID,0,
2014-10-11, 01:30:05,VALID,1009.12,VALID,0,INVALID,116.224,VALID,0.112112,VALID,22.7004,VALID,156,VALID,0,
2014-10-11, 01:31:05,VALID,1009.08,VALID,0,INVALID,116.247,VALID,0.112112,VALID,22.6809,VALID,156,VALID,0,
2014-10-11, 01:32:05,VALID,1009.09,VALID,0,INVALID,116.277,VALID,0,VALID,22.642,VALID,156,VALID,0,
2014-10-11, 01:33:05,VALID,1009.1,VALID,0,INVALID,116.262,VALID,0,VALID,22.6208,VALID,156,VALID,0,
2014-10-11, 01:34:05,VALID,1009.1,VALID,0,INVALID,116.171,VALID,0,VALID,22.6614,VALID,156,VALID,0,
2014-10-11, 01:35:05,VALID,1009.12,VALID,0,INVALID,116.087,VALID,0,VALID,22.642,VALID,156,VALID,0,
2014-10-11, 01:36:05,VALID,1009.14,VALID,0,INVALID,116.064,VALID,0,VALID,22.6614,VALID,156,VALID,0,
2014-10-11, 01:37:05,VALID,1009.12,VALID,0,INVALID,116.072,VALID,0,VALID,22.6402,VALID,156,VALID,0,
2014-10-11, 01:38:05,VALID,1009.16,VALID,0,INVALID,116.056,VALID,0,VALID,22.6809,VALID,156,VALID,0,
2014-10-11, 01:39:05,VALID,1009.16,VALID,0,INVALID,116.064,VALID,0,VALID,22.6614,VALID,156,VALID,0,
2014-10-11, 01:40:05,VALID,1009.19,VALID,0,INVALID,116.018,VALID,0,VALID,22.6809,VALID,156,VALID,0,
2014-10-11, 01:41:05,VALID,1009.2,VALID,0,INVALID,116.041,VALID,0,VALID,22.6597,VALID,156,VALID,0,
2014-10-11, 01:42:05,VALID,1009.2,VALID,0,INVALID,116.011,VALID,0,VALID,22.6809,VALID,156,VALID,0,
2014-10-11, 01:43:05,VALID,1009.19,VALID,0,INVALID,116.041,VALID,0,VALID,22.6809,VALID,156,VALID,0,
2014-10-11, 01:44:05,VALID,1009.17,VALID,0,INVALID,116.079,VALID,0,VALID,22.6809,VALID,156,VALID,0,
2014-10-11, 01:45:05,VALID,1009.19,VALID,0,INVALID,116.11,VALID,0,VALID,22.6809,VALID,156,VALID,0,
2014-10-11, 01:46:05,VALID,1009.2,VALID,0,INVALID,116.117,VALID,0,VALID,22.6614,VALID,156,VALID,0,
2014-10-11, 01:47:05,VALID,1009.18,VALID,0,INVALID,116.194,VALID,0,VALID,22.6208,VALID,156,VALID,0,
2014-10-11, 01:48:05,VALID,1009.16,VALID,0,INVALID,116.201,VALID,0,VALID,22.642,VALID,156,VALID,0,
2014-10-11, 01:49:05,VALID,1009.14,VALID,0,INVALID,116.194,VALID,0,VALID,22.6013,VALID,156,VALID,0,
2014-10-11, 01:50:05,VALID,1009.11,VALID,0,INVALID,116.155,VALID,0,VALID,22.603,VALID,156,VALID,0,
2014-10-11, 01:51:05,VALID,1009.11,VALID,0,INVALID,116.194,VALID,0,VALID,22.603,VALID,156,VALID,0,
2014-10-11, 01:52:05,VALID,1009.08,VALID,0,INVALID,116.163,VALID,0,VALID,22.603,VALID,156,VALID,0,
2014-10-11, 01:53:05,VALID,1009.05,VALID,0,INVALID,116.163,VALID,0,VALID,22.603,VALID,156,VALID,0,
2014-10-11, 01:54:05,VALID,1009.01,VALID,0,INVALID,116.117,VALID,0,VALID,22.603,VALID,156,VALID,0,
2014-10-11, 01:55:05,VALID,1009.05,VALID,0,INVALID,116.171,VALID,0,VALID,22.603,VALID,156,VALID,0,
2014-10-11, 01:56:05,VALID,1009.02,VALID,0,INVALID,116.178,VALID,0,VALID,22.5835,VALID,156,VALID,0,
2014-10-11, 01:57:05,VALID,1009.05,VALID,0,INVALID,116.171,VALID,0,VALID,22.5623,VALID,156,VALID,0,
2014-10-11, 01:58:05,VALID,1009.06,VALID,0,INVALID,116.201,VALID,0,VALID,22.5835,VALID,156,VALID,0,
2014-10-11, 01:59:05,VALID,1009.07,VALID,0,INVALID,116.232,VALID,0,VALID,22.5429,VALID,156,VALID,0,
2014-10-11, 02:00:05,VALID,1009.08,VALID,0,INVALID,116.216,VALID,0,VALID,22.564,VALID,156,VALID,0,
2014-10-11, 02:01:05,VALID,1009.11,VALID,0,INVALID,116.194,VALID,0,VALID,22.564,VALID,156,VALID,0,
2014-10-11, 02:02:05,VALID,1009.12,VALID,0,INVALID,116.239,VALID,0,VALID,22.5429,VALID,156,VALID,0,
2014-10-11, 02:03:05,VALID,1009.15,VALID,0,INVALID,116.186,VALID,0,VALID,22.564,VALID,156,VALID,0,
2014-10-11, 02:04:05,VALID,1009.22,VALID,0,INVALID,116.216,VALID,0,VALID,22.564,VALID,156,VALID,0,
2014-10-11, 02:05:05,VALID,1009.2,VALID,0,INVALID,116.148,VALID,0,VALID,22.5429,VALID,156,VALID,0,
2014-10-11, 02:06:05,VALID,1009.22,VALID,0,INVALID,116.163,VALID,0,VALID,22.564,VALID,156,VALID,0,
2014-10-11, 02:07:05,VALID,1009.25,VALID,0,INVALID,116.155,VALID,0,VALID,22.564,VALID,156,VALID,0,
2014-10-11, 02:08:05,VALID,1009.22,VALID,0,INVALID,116.117,VALID,0,VALID,22.5446,VALID,156,VALID,0,
2014-10-11, 02:09:05,VALID,1009.25,VALID,0,INVALID,116.171,VALID,0,VALID,22.5446,VALID,156,VALID,0,
2014-10-11, 02:10:05,VALID,1009.26,VALID,0,INVALID,116.186,VALID,0,VALID,22.5446,VALID,156,VALID,0,
2014-10-11, 02:11:05,VALID,1009.25,VALID,0,INVALID,116.171,VALID,0,VALID,22.5234,VALID,156,VALID,0,
2014-10-11, 02:12:05,VALID,1009.25,VALID,0,INVALID,116.148,VALID,0,VALID,22.564,VALID,156,VALID,0,
2014-10-11, 02:13:05,VALID,1009.27,VALID,0,INVALID,116.14,VALID,0,VALID,22.5234,VALID,156,VALID,0,
2014-10-11, 02:14:05,VALID,1009.29,VALID,0,INVALID,116.133,VALID,0,VALID,22.5446,VALID,156,VALID,0,
2014-10-11, 02:15:05,VALID,1009.33,VALID,0,INVALID,116.087,VALID,0,VALID,22.5835,VALID,156,VALID,0,
2014-10-11, 02:16:05,VALID,1009.35,VALID,0,INVALID,116.041,VALID,0,VALID,22.603,VALID,156,VALID,0,
2014-10-11, 02:17:05,VALID,1009.35,VALID,0,INVALID,116.056,VALID,0,VALID,22.6225,VALID,156,VALID,0,
2014-10-11, 02:18:05,VALID,1009.34,VALID,0,INVALID,116.011,VALID,0,VALID,22.642,VALID,156,VALID,0,
2014-10-11, 02:19:05,VALID,1009.34,VALID,0,INVALID,116.003,VALID,0,VALID,22.6614,VALID,156,VALID,0,
2014-10-11, 02:20:05,VALID,1009.33,VALID,0,INVALID,116.041,VALID,0,VALID,22.642,VALID,156,VALID,0,
2014-10-11, 02:21:05,VALID,1009.35,VALID,0,INVALID,116.102,VALID,0,VALID,22.6225,VALID,156,VALID,0,
2014-10-11, 02:22:05,VALID,1009.33,VALID,0,INVALID,116.194,VALID,0,VALID,22.6225,VALID,156,VALID,0,
2014-10-11, 02:23:05,VALID,1009.32,VALID,0,INVALID,116.224,VALID,0,VALID,22.6225,VALID,156,VALID,0,
2014-10-11, 02:24:05,VALID,1009.25,VALID,0,INVALID,116.285,VALID,0,VALID,22.6225,VALID,138,VALID,0,
2014-10-11, 02:25:05,VALID,1009.23,VALID,0,INVALID,116.316,VALID,0,VALID,22.6225,VALID,138,VALID,0,
2014-10-11, 02:26:05,VALID,1009.24,VALID,0,INVALID,116.392,VALID,0,VALID,22.603,VALID,138,VALID,0,
2014-10-11, 02:27:05,VALID,1009.26,VALID,0,INVALID,116.361,VALID,0,VALID,22.5835,VALID,138,VALID,0,
2014-10-11, 02:28:05,VALID,1009.27,VALID,0,INVALID,116.331,VALID,0,VALID,22.603,VALID,138,VALID,0,
2014-10-11, 02:29:05,VALID,1009.22,VALID,0,INVALID,116.338,VALID,0,VALID,22.6047,VALID,138,VALID,0,
2014-10-11, 02:30:05,VALID,1009.22,VALID,0,INVALID,116.377,VALID,0,VALID,22.5835,VALID,138,VALID,0,
2014-10-11, 02:31:05,VALID,1009.24,VALID,0,INVALID,116.369,VALID,0,VALID,22.5835,VALID,138,VALID,0,
2014-10-11, 02:32:05,VALID,1009.21,VALID,0,INVALID,116.361,VALID,0,VALID,22.603,VALID,138,VALID,0,
2014-10-11, 02:33:05,VALID,1009.23,VALID,0,INVALID,116.323,VALID,0,VALID,22.6225,VALID,138,VALID,0,
2014-10-11, 02:34:05,VALID,1009.22,VALID,0,INVALID,116.354,VALID,0,VALID,22.603,VALID,138,VALID,0,
2014-10-11, 02:35:05,VALID,1009.24,VALID,0,INVALID,116.407,VALID,0,VALID,22.603,VALID,138,VALID,0,
2014-10-11, 02:36:05,VALID,1009.26,VALID,0,INVALID,116.468,VALID,0,VALID,22.6047,VALID,138,VALID,0,
2014-10-11, 02:37:05,VALID,1009.28,VALID,0,INVALID,116.483,VALID,0,VALID,22.6047,VALID,138,VALID,0,
2014-10-11, 02:38:05,VALID,1009.27,VALID,0,INVALID,116.491,VALID,0,VALID,22.603,VALID,138,VALID,0,
2014-10-11, 02:39:05,VALID,1009.29,VALID,0,INVALID,116.522,VALID,0,VALID,22.603,VALID,138,VALID,0,
2014-10-11, 02:40:05,VALID,1009.3,VALID,0,INVALID,116.544,VALID,0,VALID,22.5835,VALID,138,VALID,0,
2014-10-11, 02:41:05,VALID,1009.29,VALID,0,INVALID,116.59,VALID,0,VALID,22.603,VALID,138,VALID,0,
2014-10-11, 02:42:05,VALID,1009.31,VALID,0,INVALID,116.628,VALID,0,VALID,22.5835,VALID,138,VALID,0,
2014-10-11, 02:43:05,VALID,1009.35,VALID,0,INVALID,116.712,VALID,0,VALID,22.5835,VALID,138,VALID,0,
2014-10-11, 02:44:05,VALID,1009.35,VALID,0,INVALID,116.796,VALID,0,VALID,22.5835,VALID,138,VALID,0,
2014-10-11, 02:45:05,VALID,1009.37,VALID,0,INVALID,116.819,VALID,0,VALID,22.5446,VALID,138,VALID,0,
2014-10-11, 02:46:05,VALID,1009.39,VALID,0,INVALID,116.796,VALID,0,VALID,22.5251,VALID,138,VALID,0,
2014-10-11, 02:47:05,VALID,1009.39,VALID,0,INVALID,116.804,VALID,0,VALID,22.5251,VALID,138,VALID,0,
2014-10-11, 02:48:05,VALID,1009.42,VALID,0,INVALID,116.849,VALID,0,VALID,22.5251,VALID,138,VALID,0,
2014-10-11, 02:49:05,VALID,1009.43,VALID,0,INVALID,116.834,VALID,0.112112,VALID,22.5251,VALID,138,VALID,0,
2014-10-11, 02:50:05,VALID,1009.46,VALID,0,INVALID,116.834,VALID,0,VALID,22.5056,VALID,138,VALID,0,
2014-10-11, 02:51:05,VALID,1009.48,VALID,0,INVALID,116.827,VALID,0,VALID,22.5056,VALID,138,VALID,0,
2014-10-11, 02:52:05,VALID,1009.49,VALID,0,INVALID,116.834,VALID,0,VALID,22.5056,VALID,138,VALID,0,
2014-10-11, 02:53:05,VALID,1009.52,VALID,0,INVALID,116.834,VALID,0,VALID,22.5056,VALID,138,VALID,0,
2014-10-11, 02:54:05,VALID,1009.52,VALID,0,INVALID,116.827,VALID,0,VALID,22.4844,VALID,138,VALID,0,
2014-10-11, 02:55:05,VALID,1009.5,VALID,0,INVALID,116.865,VALID,0,VALID,22.5056,VALID,138,VALID,0,
2014-10-11, 02:56:05,VALID,1009.49,VALID,0,INVALID,116.865,VALID,0,VALID,22.4861,VALID,138,VALID,0,
2014-10-11, 02:57:05,VALID,1009.5,VALID,0,INVALID,116.827,VALID,0,VALID,22.4844,VALID,138,VALID,0,
2014-10-11, 02:58:05,VALID,1009.5,VALID,0,INVALID,116.766,VALID,0,VALID,22.4861,VALID,138,VALID,0,
2014-10-11, 02:59:05,VALID,1009.49,VALID,0,INVALID,116.766,VALID,0,VALID,22.5056,VALID,138,VALID,0,
2014-10-11, 03:00:05,VALID,1009.48,VALID,0,INVALID,116.788,VALID,0,VALID,22.465,VALID,138,VALID,0,
2014-10-11, 03:01:05,VALID,1009.47,VALID,0,INVALID,116.849,VALID,0,VALID,22.4861,VALID,138,VALID,0,
2014-10-11, 03:02:05,VALID,1009.45,VALID,0,INVALID,116.842,VALID,0,VALID,22.4455,VALID,138,VALID,0,
2014-10-11, 03:03:05,VALID,1009.43,VALID,0,INVALID,116.872,VALID,0,VALID,22.4667,VALID,138,VALID,0,
2014-10-11, 03:04:05,VALID,1009.44,VALID,0,INVALID,116.941,VALID,0,VALID,22.4472,VALID,138,VALID,0,
2014-10-11, 03:05:05,VALID,1009.42,VALID,0,INVALID,116.987,VALID,0,VALID,22.4065,VALID,138,VALID,0,
2014-10-11, 03:06:05,VALID,1009.43,VALID,0,INVALID,117.002,VALID,0,VALID,22.4277,VALID,138,VALID,0,
2014-10-11, 03:07:05,VALID,1009.47,VALID,0,INVALID,116.949,VALID,0,VALID,22.387,VALID,138,VALID,0,
2014-10-11, 03:08:05,VALID,1009.46,VALID,0,INVALID,116.918,VALID,0,VALID,22.4082,VALID,138,VALID,0,
2014-10-11, 03:09:05,VALID,1009.49,VALID,0,INVALID,116.933,VALID,0,VALID,22.4082,VALID,138,VALID,0,
2014-10-11, 03:10:05,VALID,1009.46,VALID,0,INVALID,116.888,VALID,0,VALID,22.4082,VALID,138,VALID,0,
2014-10-11, 03:11:05,VALID,1009.47,VALID,0,INVALID,116.849,VALID,0,VALID,22.4082,VALID,138,VALID,0,
2014-10-11, 03:12:05,VALID,1009.43,VALID,0,INVALID,116.91,VALID,0,VALID,22.4099,VALID,138,VALID,0,
2014-10-11, 03:13:05,VALID,1009.4,VALID,0,INVALID,116.926,VALID,0,VALID,22.3887,VALID,138,VALID,0,
2014-10-11, 03:14:05,VALID,1009.37,VALID,0,INVALID,116.987,VALID,0,VALID,22.3676,VALID,138,VALID,0,
2014-10-11, 03:15:05,VALID,1009.31,VALID,0,INVALID,116.964,VALID,0,VALID,22.3693,VALID,138,VALID,0,
2014-10-11, 03:16:05,VALID,1009.27,VALID,0,INVALID,116.918,VALID,0,VALID,22.3693,VALID,138,VALID,0,
2014-10-11, 03:17:05,VALID,1009.3,VALID,0,INVALID,116.888,VALID,0,VALID,22.3693,VALID,138,VALID,0,
2014-10-11, 03:18:05,VALID,1009.26,VALID,0,INVALID,116.933,VALID,0,VALID,22.3693,VALID,138,VALID,0,
2014-10-11, 03:19:05,VALID,1009.26,VALID,0,INVALID,116.91,VALID,0,VALID,22.3693,VALID,138,VALID,0,
2014-10-11, 03:20:05,VALID,1009.2,VALID,0,INVALID,116.941,VALID,0,VALID,22.3498,VALID,138,VALID,0,
2014-10-11, 03:21:05,VALID,1009.18,VALID,0,INVALID,116.91,VALID,0,VALID,22.3693,VALID,138,VALID,0,
2014-10-11, 03:22:05,VALID,1009.15,VALID,0,INVALID,116.903,VALID,0,VALID,22.371,VALID,138,VALID,0,
2014-10-11, 03:23:05,VALID,1009.11,VALID,0,INVALID,116.956,VALID,0,VALID,22.3498,VALID,138,VALID,0,
2014-10-11, 03:24:05,VALID,1009.08,VALID,0,INVALID,116.979,VALID,0,VALID,22.3303,VALID,138,VALID,0,
2014-10-11, 03:25:05,VALID,1009.02,VALID,0,INVALID,117.032,VALID,0,VALID,22.3108,VALID,138,VALID,0,
2014-10-11, 03:26:05,VALID,1009.03,VALID,0,INVALID,117.017,VALID,0,VALID,22.3108,VALID,138,VALID,0,
2014-10-11, 03:27:05,VALID,1008.99,VALID,0,INVALID,117.025,VALID,0,VALID,22.3108,VALID,138,VALID,0,
2014-10-11, 03:28:05,VALID,1008.98,VALID,0,INVALID,117.017,VALID,0,VALID,22.3108,VALID,138,VALID,0,
2014-10-11, 03:29:05,VALID,1009.02,VALID,0,INVALID,117.032,VALID,0.112112,VALID,22.2897,VALID,138,VALID,0,
2014-10-11, 03:30:05,VALID,1009,VALID,0,INVALID,116.987,VALID,0,VALID,22.3108,VALID,138,VALID,0,
2014-10-11, 03:31:05,VALID,1009,VALID,0,INVALID,116.926,VALID,0,VALID,22.3108,VALID,138,VALID,0,
2014-10-11, 03:32:05,VALID,1008.98,VALID,0,INVALID,116.903,VALID,0,VALID,22.3108,VALID,138,VALID,0,
2014-10-11, 03:33:05,VALID,1008.98,VALID,0,INVALID,116.888,VALID,0,VALID,22.2897,VALID,138,VALID,0,
2014-10-11, 03:34:05,VALID,1008.98,VALID,0,INVALID,116.933,VALID,0,VALID,22.3108,VALID,138,VALID,0,
2014-10-11, 03:35:05,VALID,1009,VALID,0,INVALID,116.933,VALID,0,VALID,22.2702,VALID,138,VALID,0,
2014-10-11, 03:36:05,VALID,1008.99,VALID,0,INVALID,116.88,VALID,0,VALID,22.3108,VALID,138,VALID,0,
2014-10-11, 03:37:05,VALID,1009.01,VALID,0,INVALID,116.895,VALID,0.112112,VALID,22.2897,VALID,138,VALID,0,
2014-10-11, 03:38:05,VALID,1009.03,VALID,0,INVALID,116.903,VALID,0.112112,VALID,22.3108,VALID,138,VALID,0,
2014-10-11, 03:39:05,VALID,1009.04,VALID,0,INVALID,116.842,VALID,0.112112,VALID,22.3303,VALID,138,VALID,0,
2014-10-11, 03:40:05,VALID,1009.03,VALID,0,INVALID,116.811,VALID,0,VALID,22.2897,VALID,138,VALID,0,
2014-10-11, 03:41:05,VALID,1009.03,VALID,0,INVALID,116.781,VALID,0,VALID,22.3498,VALID,138,VALID,0,
2014-10-11, 03:42:05,VALID,1009.05,VALID,0,INVALID,116.804,VALID,0,VALID,22.3498,VALID,138,VALID,0,
2014-10-11, 03:43:05,VALID,1009.08,VALID,0,INVALID,116.804,VALID,0,VALID,22.3286,VALID,138,VALID,0,
2014-10-11, 03:44:05,VALID,1009.1,VALID,0,INVALID,116.834,VALID,0,VALID,22.3498,VALID,138,VALID,0,
2014-10-11, 03:45:05,VALID,1009.15,VALID,0,INVALID,116.758,VALID,0.112112,VALID,22.3693,VALID,138,VALID,0,
2014-10-11, 03:46:05,VALID,1009.17,VALID,0,INVALID,116.796,VALID,0,VALID,22.3481,VALID,138,VALID,0,
2014-10-11, 03:47:05,VALID,1009.14,VALID,0,INVALID,116.781,VALID,0,VALID,22.3481,VALID,138,VALID,0,
2014-10-11, 03:48:05,VALID,1009.19,VALID,0,INVALID,116.758,VALID,0,VALID,22.3693,VALID,138,VALID,0,
2014-10-11, 03:49:05,VALID,1009.17,VALID,0,INVALID,116.788,VALID,0,VALID,22.3887,VALID,138,VALID,0,
2014-10-11, 03:50:05,VALID,1009.17,VALID,0,INVALID,116.773,VALID,0,VALID,22.4082,VALID,138,VALID,0,
2014-10-11, 03:51:05,VALID,1009.16,VALID,0,INVALID,116.788,VALID,0,VALID,22.4082,VALID,138,VALID,0,
2014-10-11, 03:52:05,VALID,1009.17,VALID,0,INVALID,116.827,VALID,0,VALID,22.4082,VALID,138,VALID,0,
2014-10-11, 03:53:05,VALID,1009.23,VALID,0,INVALID,116.88,VALID,0.112112,VALID,22.4065,VALID,138,VALID,0,